{"data":{"norad_id":63824,"epoch":"2026-09-20T23:09:59.734944Z","epoch_age_seconds":109697,"freshness":"FRESH","line1":"1 63824U 25092W   26263.96527471  .00010031  00000+0  37338-3 0  9992","line2":"2 63824  42.9995 149.3678 0001599 260.7760  99.2911 15.27594678 78429","mean_motion":15.27594678,"eccentricity":0.0001599,"inclination_deg":42.9995,"raan_deg":149.3678,"arg_perigee_deg":260.776,"mean_anomaly_deg":99.2911,"bstar":0.00037338,"rev_number":7842,"period_min":94.265842945022,"perigee_km":481.90804855018,"apogee_km":484.10224180821,"semimajor_km":6861.1421451792,"source":"CELESTRAK","updated_at":"2026-09-21T09:00:35.108119Z"}}